Hourly Weather Bolshie Yaki

Today, 20 June, Sunday

Time Temperature Precipitation Wind Pressure Humidity
00:00 +19°C° 0 mm 3 mps 756 mmHg 89%
01:00 +18°C° 0 mm 3 mps 756 mmHg 90%
02:00 +18°C° 0 mm 3 mps 756 mmHg 92%
03:00 +17°C° 0 mm 3 mps 756 mmHg 93%
04:00 +19°C° 0 mm 3 mps 756 mmHg 88%
05:00 +20°C° 0 mm 3 mps 756 mmHg 83%
06:00 +21°C° 0 mm 3 mps 757 mmHg 78%
07:00 +24°C° 0 mm 3 mps 757 mmHg 71%
08:00 +26°C° 0 mm 3 mps 757 mmHg 64%
09:00 +28°C° 0 mm 3 mps 757 mmHg 59%
10:00 +29°C° 0 mm 3 mps 757 mmHg 55%
11:00 +30°C° 0 mm 3 mps 757 mmHg 52%
12:00 +31°C° 0 mm 3 mps 757 mmHg 48%
13:00 +31°C° 0 mm 2 mps 757 mmHg 49%
14:00 +31°C° 0 mm 2 mps 757 mmHg 50%
15:00 +31°C° 0 mm 2 mps 756 mmHg 52%
16:00 +29°C° 0.1 mm 2 mps 756 mmHg 58%
17:00 +28°C° 0.1 mm 2 mps 756 mmHg 65%
18:00 +27°C° 0.1 mm 2 mps 756 mmHg 71%
19:00 +26°C° 0.1 mm 1 mps 756 mmHg 75%
20:00 +25°C° 0.1 mm 1 mps 756 mmHg 78%
21:00 +25°C° 0.1 mm 1 mps 756 mmHg 82%
22:00 +24°C° 0.1 mm 1 mps 756 mmHg 84%
23:00 +24°C° 0.1 mm 2 mps 756 mmHg 86%

Tomorrow, 21 June, Monday

Time Temperature Precipitation Wind Pressure Humidity
00:00 +23°C° 0.1 mm 2 mps 757 mmHg 88%
01:00 +23°C° 0 mm 2 mps 757 mmHg 89%
02:00 +21°C° 0 mm 2 mps 757 mmHg 89%
03:00 +21°C° 0 mm 2 mps 757 mmHg 89%
04:00 +23°C° 0 mm 2 mps 757 mmHg 87%
05:00 +23°C° 0 mm 2 mps 757 mmHg 84%
06:00 +24°C° 0 mm 2 mps 757 mmHg 81%
07:00 +25°C° 0 mm 3 mps 757 mmHg 75%
08:00 +27°C° 0 mm 3 mps 757 mmHg 68%
09:00 +29°C° 0 mm 3 mps 757 mmHg 61%
10:00 +30°C° 0 mm 4 mps 757 mmHg 57%
11:00 +32°C° 0 mm 4 mps 757 mmHg 53%
12:00 +32°C° 0 mm 4 mps 757 mmHg 49%
13:00 +33°C° 0 mm 4 mps 757 mmHg 48%
14:00 +33°C° 0 mm 4 mps 756 mmHg 48%
15:00 +33°C° 0 mm 4 mps 756 mmHg 47%
16:00 +32°C° 0 mm 4 mps 756 mmHg 53%
17:00 +30°C° 0 mm 4 mps 756 mmHg 59%
18:00 +29°C° 0 mm 3 mps 756 mmHg 65%
19:00 +28°C° 0 mm 3 mps 756 mmHg 72%
20:00 +26°C° 0 mm 3 mps 756 mmHg 79%
21:00 +24°C° 0 mm 2 mps 757 mmHg 86%
22:00 +24°C° 0 mm 2 mps 757 mmHg 87%
23:00 +23°C° 0 mm 2 mps 757 mmHg 88%

Day after tomorrow, 22 June, Tuesday

Time Temperature Precipitation Wind Pressure Humidity
00:00 +23°C° 0 mm 2 mps 757 mmHg 90%
01:00 +21°C° 0 mm 2 mps 757 mmHg 90%
02:00 +21°C° 0 mm 2 mps 757 mmHg 91%
03:00 +21°C° 0 mm 2 mps 757 mmHg 92%
04:00 +23°C° 0 mm 2 mps 757 mmHg 87%
05:00 +24°C° 0 mm 2 mps 757 mmHg 82%
06:00 +25°C° 0 mm 2 mps 757 mmHg 78%
07:00 +27°C° 0 mm 2 mps 757 mmHg 71%
08:00 +28°C° 0 mm 3 mps 757 mmHg 64%
09:00 +30°C° 0 mm 3 mps 757 mmHg 57%
10:00 +31°C° 0 mm 3 mps 757 mmHg 52%
11:00 +33°C° 0 mm 3 mps 757 mmHg 48%
12:00 +34°C° 0 mm 3 mps 757 mmHg 43%
13:00 +34°C° 0 mm 3 mps 757 mmHg 43%
14:00 +34°C° 0 mm 3 mps 757 mmHg 43%
15:00 +34°C° 0 mm 4 mps 757 mmHg 42%
16:00 +33°C° 0 mm 4 mps 757 mmHg 48%
17:00 +31°C° 0 mm 3 mps 756 mmHg 55%
18:00 +30°C° 0 mm 3 mps 756 mmHg 61%
19:00 +28°C° 0 mm 3 mps 756 mmHg 68%
20:00 +26°C° 0 mm 2 mps 756 mmHg 76%
21:00 +25°C° 0 mm 2 mps 757 mmHg 84%
22:00 +24°C° 0 mm 2 mps 757 mmHg 85%
23:00 +24°C° 0 mm 2 mps 757 mmHg 87%

23 June, Wednesday

Time Temperature Precipitation Wind Pressure Humidity
00:00 +23°C° 0 mm 1 mps 757 mmHg 88%
01:00 +23°C° 0 mm 1 mps 757 mmHg 89%
02:00 +22°C° 0 mm 1 mps 757 mmHg 89%
03:00 +22°C° 0 mm 1 mps 757 mmHg 90%
04:00 +23°C° 0 mm 2 mps 757 mmHg 84%
05:00 +24°C° 0 mm 2 mps 757 mmHg 79%
06:00 +25°C° 0 mm 2 mps 757 mmHg 74%
07:00 +27°C° 0 mm 2 mps 757 mmHg 68%
08:00 +28°C° 0 mm 2 mps 757 mmHg 61%
09:00 +30°C° 0 mm 3 mps 757 mmHg 55%
10:00 +31°C° 0 mm 3 mps 757 mmHg 50%
11:00 +33°C° 0 mm 3 mps 757 mmHg 46%
12:00 +34°C° 0 mm 3 mps 757 mmHg 41%
13:00 +34°C° 0 mm 3 mps 757 mmHg 41%
14:00 +34°C° 0 mm 3 mps 757 mmHg 42%
15:00 +34°C° 0 mm 3 mps 757 mmHg 42%
16:00 +31°C° 0.1 mm 3 mps 756 mmHg 49%
17:00 +30°C° 0.1 mm 3 mps 756 mmHg 56%
18:00 +28°C° 0.1 mm 4 mps 756 mmHg 64%
19:00 +27°C° 0.3 mm 3 mps 756 mmHg 67%
20:00 +26°C° 0.3 mm 2 mps 756 mmHg 70%
21:00 +25°C° 0.3 mm 2 mps 756 mmHg 74%
22:00 +24°C° 0 mm 2 mps 756 mmHg 77%
23:00 +24°C° 0 mm 2 mps 756 mmHg 81%

24 June, Thursday

Time Temperature Precipitation Wind Pressure Humidity
00:00 +23°C° 0 mm 2 mps 756 mmHg 84%
01:00 +23°C° 0.3 mm 1 mps 756 mmHg 86%
02:00 +22°C° 0.3 mm 1 mps 756 mmHg 88%
03:00 +20°C° 0.3 mm 0 mps 756 mmHg 91%
04:00 +23°C° 0 mm 1 mps 756 mmHg 87%
05:00 +24°C° 0 mm 1 mps 756 mmHg 84%
06:00 +25°C° 0 mm 1 mps 756 mmHg 81%
07:00 +27°C° 0 mm 2 mps 756 mmHg 73%
08:00 +29°C° 0 mm 2 mps 756 mmHg 66%
09:00 +30°C° 0 mm 2 mps 756 mmHg 58%
10:00 +31°C° 0 mm 2 mps 756 mmHg 53%
11:00 +34°C° 0 mm 2 mps 755 mmHg 48%
12:00 +35°C° 0 mm 2 mps 755 mmHg 43%
13:00 +35°C° 0 mm 2 mps 755 mmHg 42%
14:00 +35°C° 0 mm 2 mps 755 mmHg 40%
15:00 +36°C° 0 mm 2 mps 755 mmHg 39%
16:00 +35°C° 0 mm 3 mps 754 mmHg 44%
17:00 +34°C° 0 mm 3 mps 754 mmHg 50%
18:00 +31°C° 0 mm 3 mps 754 mmHg 55%
19:00 +30°C° 0.1 mm 2 mps 754 mmHg 60%
20:00 +28°C° 0.1 mm 1 mps 754 mmHg 64%
21:00 +26°C° 0.1 mm 1 mps 754 mmHg 69%
22:00 +25°C° 0 mm 1 mps 754 mmHg 71%
23:00 +25°C° 0 mm 1 mps 754 mmHg 73%

25 June, Friday

Time Temperature Precipitation Wind Pressure Humidity
00:00 +24°C° 0 mm 1 mps 754 mmHg 74%
01:00 +24°C° 0 mm 1 mps 753 mmHg 76%
02:00 +23°C° 0 mm 1 mps 753 mmHg 78%
03:00 +23°C° 0 mm 1 mps 753 mmHg 79%
04:00 +24°C° 0 mm 2 mps 753 mmHg 78%
05:00 +25°C° 0 mm 2 mps 753 mmHg 77%
06:00 +26°C° 0 mm 2 mps 753 mmHg 75%
07:00 +28°C° 0 mm 2 mps 753 mmHg 68%
08:00 +29°C° 0 mm 2 mps 753 mmHg 62%
09:00 +31°C° 0 mm 3 mps 753 mmHg 55%
10:00 +33°C° 0 mm 3 mps 753 mmHg 51%
11:00 +34°C° 0 mm 3 mps 753 mmHg 48%
12:00 +35°C° 0 mm 4 mps 753 mmHg 44%
13:00 +35°C° 0 mm 4 mps 752 mmHg 43%
14:00 +35°C° 0 mm 4 mps 752 mmHg 43%
15:00 +36°C° 0 mm 4 mps 752 mmHg 43%
16:00 +35°C° 0 mm 3 mps 752 mmHg 48%
17:00 +34°C° 0 mm 3 mps 751 mmHg 54%
18:00 +33°C° 0 mm 3 mps 751 mmHg 59%
19:00 +30°C° 0 mm 2 mps 751 mmHg 67%
20:00 +28°C° 0 mm 2 mps 751 mmHg 74%
21:00 +26°C° 0 mm 2 mps 751 mmHg 82%
22:00 +26°C° 0 mm 2 mps 751 mmHg 82%
23:00 +25°C° 0 mm 2 mps 751 mmHg 83%
Show more